Location: Roanoke
(37.2710°N, 79.9420°W)
Time: 00:08:16
(UTC-05:00)

Transit 2A - Pass Details

Date: 30 November 2019
Orbit: 602 x 957 km, 66.7° (Epoch: 12 December)

Event Time Altitude Azimuth Distance (km) Brightness Sun altitude
Rises 10:45:13 0° 249° (WSW) 3,136 9.2 27.9°
Reaches altitude 10° 10:48:28 10° 270° (W) 2,147 8.2 28.1°
Maximum altitude 10:51:32 17° 309° (NW) 1,692 7.5 28.3°
Drops below altitude 10° 10:54:28 10° 349° (N) 2,040 7.8 28.5°
Sets 10:57:28 0° 11° (N) 2,908 8.5 28.7°
